SL-3 R/B

Last updated on Sun Aug 09 2026 00:02:09 GMT+0000 (Coordinated Universal Time)

1 19046U 88032B 26220.54405465 .00002291 00000+0 10495-3 0 9991 2 19046 97.5300 203.5565 0027017 65.9906 294.4153 15.21205943 75185
UTC large
Height (km)
Speed (km/s)
/
Latitude / Longitude
Inclination (degrees)
Orbital Period (minutes)
Azimuth
Elevation
Range (km)
Doppler Factor

Next 0 passes for location: London (51.5072 / 0.1276)

No passes found over London.
SL-3 R/B